Tracking 29892 objects as of 21-Nov-2024
HD Live streaming from Space Station
objects crossing your sky now

COSMOS 1808

Track COSMOS 1808 now!
10-day predictions
COSMOS 1808 is classified as:


NORAD ID: 17239
Int'l Code: 1986-100A
Perigee: 974.5 km
Apogee: 1,023.4 km
Inclination: 82.9 °
Period: 104.9 minutes
Semi major axis: 7369 km
RCS: 2.275 m2 (large)
Launch date: December 17, 1986
Source: Commonwealth of Independent States (former USSR) (CIS)
Launch site: PLESETSK MISSILE AND SPACE COMPLEX (PKMTR)
Your satellite tracking list
Your tracking list is empty




NASA's NSSDC Master Catalog

Two Line Element Set (TLE):
1 17239U 86100A   24326.07968932  .00000107  00000-0  10066-3 0  9992
2 17239  82.9361 235.0400 0033209  14.4184  53.7911 13.72171365899093
Source of the keplerian elements: AFSPC